Location: Okie-Tex Star Party
(36.8978°N, 102.9520°W)
Time: 16:31:11
(UTC-05:00)

Daily predictions for brighter satellites

Satellite Brightness Start Highest point End
(mag) Time Altitude Azimuth Time Altitude Azimuth Time Altitude Azimuth
Cosmos 1570 Rocket 4.3 21:21:55 10° SSW 21:27:15 80° WNW 21:32:38 10° NNE
ERS-2 2.6 21:26:10 10° SE 21:29:40 43° ENE 21:33:12 10° N
CENTAUR R/B 2.6 21:30:21 10° S 21:35:51 48° ESE 21:42:06 10° NE
Cosmos 1666 3.1 21:34:45 10° N 21:38:30 45° E 21:42:12 10° SSE
Cosmos 2360 Rocket 3.7 21:34:57 10° N 21:39:13 21° ENE 21:43:27 10° ESE
Cosmos 1980 Rocket 3.2 21:36:44 10° NW 21:42:08 46° WSW 21:47:31 10° S
Cosmos 1898 Rocket 3.6 21:40:51 10° NNW 21:46:09 66° ENE 21:51:25 10° SSE
Cosmos 1814 Rocket 4.1 21:41:11 10° S 21:46:18 59° ESE 21:51:32 10° NNE
SJ-6B 4.1 21:42:52 10° SSW 21:46:20 37° W 21:49:50 10° NNW
Aureole 2 Rocket 3.9 21:48:12 10° NNE 21:50:03 16° ENE 21:51:29 12° E
Cosmos 1975 2.8 21:47:59 10° N 21:52:02 86° E 21:56:02 10° S
Atlas Centaur 2 2.9 21:49:46 10° WSW 21:52:56 21° SSW 21:55:30 11° SSE
Resurs 1-3 3.6 21:49:40 10° SSE 21:54:03 89° W 21:58:27 10° NNW
Meteor 1-19 Rocket 4.3 21:48:55 10° S 21:54:47 71° E 22:00:40 10° NNE
Envisat 4.4 21:50:08 10° SSW 21:54:48 37° W 21:59:31 10° NNW
Cosmos 990 Rocket 4.2 21:50:11 10° N 21:55:20 57° ENE 22:00:07 12° SSE
Iridium 2 4.0 21:52:49 10° SSE 21:56:29 46° E 22:00:10 10° NNE
Cosmos 1743 2.6 21:52:57 10° N 21:56:47 74° E 22:00:34 10° SSE
Cosmos 1455 Rocket 4.0 21:54:42 10° NNE 21:58:33 30° ENE 22:01:29 15° SE
GPS 2-05 Rocket1 3.3 21:56:40 10° SW 21:59:43 36° SSE 22:02:11 14° E
H-2A R/B 3.2 21:57:46 13° ESE 22:01:09 25° ENE 22:05:13 10° NNE
BREEZE-M DEB (TANK) 2.2 22:03:44 10° NW 22:06:00 86° SW 22:08:59 17° SE
SJ-11-01 4.5 22:01:57 10° S 22:06:40 76° WSW 22:11:25 10° NNW
Cosmos 1975 Rocket 3.2 22:03:30 10° S 22:07:49 77° W 22:12:09 10° N
Cosmos 2333 Rocket 4.4 22:10:50 10° NE 22:12:00 11° NE 22:13:09 10° ENE
COSMOS 2428 4.5 22:11:37 10° NNE 22:15:22 18° NE 22:18:42 11° E
ATLAS CENTAUR R/B 4.4 22:15:31 10° W 22:17:17 12° WSW 22:19:04 10° SW
Cosmos 1242 Rocket 3.1 22:14:00 10° NNW 22:17:35 58° W 22:21:00 11° S
CZ-4B DEB 4.5 22:15:59 20° SSE 22:18:16 66° ENE 22:21:44 10° N
USA 186 4.4 22:16:35 10° SW 22:19:04 20° W 22:21:39 10° NW
Cosmos 1833 4.1 22:14:21 10° SSW 22:20:05 77° ESE 22:25:47 10° NNE
Cosmos 1515 4.2 22:19:18 21° SSE 22:21:24 40° E 22:25:01 10° NNE
OAO 1 Rocket 4.4 22:17:14 10° W 22:22:31 69° S 22:26:14 20° ESE
ARGOS 3.4 22:19:05 18° SE 22:22:55 54° ENE 22:28:11 10° N
Meteor 2-4 Rocket 3.6 22:18:35 10° S 22:24:01 86° E 22:29:38 10° N
Cosmos 540 Rocket 3.5 22:19:19 10° S 22:24:20 56° ESE 22:29:24 10° NNE
Shenzhou-11 Module 2.2 22:21:54 10° WNW 22:24:51 60° NNE 22:26:08 29° E
Helios 1B rocket 4.4 22:22:55 10° ENE 22:24:34 13° E 22:24:34 13° E
Cosmos 1544 Rocket 3.6 22:21:52 10° N 22:26:17 63° E 22:29:02 22° SSE
SPOT 5 4.3 22:26:22 17° E 22:27:59 20° ENE 22:31:19 10° NNE
Cosmos 2150 Rocket 4.0 22:24:37 10° NNW 22:30:00 83° ENE 22:33:31 22° SSE
Lacrosse 5 rocket 2.3 22:27:03 10° NNW 22:31:07 38° NE 22:33:08 23° E
Tiangong 2 3.1 22:29:55 10° WNW 22:32:39 26° N 22:35:15 11° ENE
Spot 2 Rocket 4.2 22:28:15 10° S 22:33:09 52° W 22:38:04 10° NNW
SJ 16-02 2.3 22:30:00 10° N 22:34:03 34° ENE 22:35:37 26° ESE
Cosmos 2322 Rocket 2.7 22:29:41 10° NNW 22:35:09 55° WSW 22:39:39 15° S
Cosmos 2322 4.2 22:31:51 10° N 22:37:21 46° ENE 22:40:13 26° ESE
Cosmos 1937 Rocket 4.1 22:35:36 10° NNW 22:40:35 52° WSW 22:44:32 16° S
Cosmos 1536 Rocket 3.5 22:38:24 21° S 22:41:16 71° E 22:45:42 10° NNE
Cosmos 841 Rocket 4.4 22:40:52 10° SW 22:45:57 50° WNW 22:51:05 10° N
SL-16 R/B 3.2 22:40:46 10° NW 22:46:04 41° WSW 22:50:35 14° S
MetOp-B 4.1 22:44:16 26° SSE 22:47:19 77° ENE 22:52:41 10° N
Resurs 01 Rocket 3.9 22:47:52 10° SW 22:51:11 21° W 22:54:31 10° NW
Cosmos 1340 Rocket 3.8 22:47:36 10° SSW 22:51:30 47° WNW 22:55:28 10° N
Cosmos 372 Rocket 4.2 22:51:18 10° N 22:56:19 53° ENE 22:57:59 37° ESE
Chunghua 1 4.4 22:57:12 10° WSW 23:00:53 63° S 23:00:57 63° S
USA 234 3.8 22:56:00 10° NE 23:02:26 60° NW 23:08:52 10° WSW
DELTA 2 R/B (1) 3.5 22:58:15 10° SW 23:03:40 57° SSE 23:07:30 19° E
Cosmos 2219 3.5 23:02:07 36° SSE 23:03:52 47° ESE 23:09:21 10° NE
CZ-4C R/B 3.5 22:57:12 10° NNW 23:04:10 46° NE 23:08:19 26° ESE
SL-08 RB Rocket 3.8 23:02:34 35° S 23:04:27 73° W 23:09:01 10° NNW
CSL-04 DEB 4.5 23:04:06 44° S 23:05:22 77° WSW 23:09:28 10° NNW
Cosmos 2237 4.1 23:03:22 10° NNW 23:09:08 84° ENE 23:11:15 41° SSE
Cosmos 1092 Rocket 4.5 23:03:09 10° N 23:09:13 45° ENE 23:11:07 35° ESE
ERS-1 Rocket 2.9 23:07:39 39° S 23:09:35 85° WSW 23:14:39 10° NNW
Nadezhda 4 Rocket 4.0 23:03:27 10° N 23:09:45 68° E 23:12:19 37° SSE
Cosmos 1025 Rocket 2.9 23:17:05 61° S 23:17:48 82° E 23:22:12 10° N
CZ-2C R/B 4.0 23:15:06 10° NE 23:18:57 23° E 23:18:57 23° E
Cosmos 2360 Rocket 2.7 23:18:02 10° NNW 23:23:29 51° WSW 23:25:42 33° SSW
Cosmos 2219 Rocket 2.7 23:20:56 10° N 23:26:17 45° ENE 23:27:26 40° E
CENTAUR R/B 4.4 23:21:29 10° WSW 23:26:44 30° NW 23:32:40 10° NNE
Okean 2 4.0 23:29:32 39° SW 23:30:38 52° W 23:34:44 10° N
Cosmos 2333 4.1 23:25:28 10° NNW 23:31:10 78° ENE 23:32:26 55° SE
Meteor 1-29 4.2 23:28:51 10° NNE 23:31:02 35° NNE 23:31:02 35° NNE
CZ-2C R/B 3.8 23:32:01 37° E 23:32:48 39° ENE 23:37:59 10° N
Cosmos 1606 Rocket 4.3 23:29:29 10° N 23:33:18 40° ENE 23:33:18 40° ENE
Cosmos 2026 Rocket 4.3 23:30:25 10° N 23:36:17 45° E 23:37:10 42° ESE
SPOT 1/Viking Rocket 3.5 23:35:49 57° S 23:36:53 79° WSW 23:42:04 10° NNW
Helios 1A 3.2 23:37:36 60° WSW 23:37:47 61° W 23:41:56 10° NNW
STPSAT 2 (USA 217) 4.5 23:37:45 80° SSW 23:38:01 89° E 23:42:38 10° NNE
USA 245 4.3 23:38:07 36° WSW 23:38:27 36° W 23:42:28 10° NNW
Cosmos 783 Rocket 4.5 23:37:10 44° SSW 23:38:52 81° WNW 23:44:11 10° NNE
H-2A R/B 3.3 23:38:23 24° SW 23:40:23 32° W 23:44:53 10° NNW
Landsat 7 3.6 23:41:04 75° S 23:41:28 86° WSW 23:46:14 10° NNW
Cosmos 1125 Rocket 3.7 23:36:19 10° NNW 23:41:29 62° WSW 23:42:26 52° SSW
Cosmos 1356 Rocket 4.4 23:43:16 37° WSW 23:44:16 44° WNW 23:48:24 10° N
Cosmos 2142 Rocket 4.3 23:51:41 61° SSE 23:52:44 75° E 23:58:56 10° N
